Wind_Speed
39 39 39 38 37 35 34 33 32 30 29 29 29 27 25 23 22 22 22 21 20 19 19 17 16 17 17 15 14 13 13 14 14 13 12 12 13 13 14 13 12 10
40 40 40 38 37 36 34 33 33 32 31 30 29 27 26 24 23 23 22 22 21 21 20 19 18 18 19 18 16 15 14 14 15 14 13 13 13 14 14 14 12 11
41 41 40 39 39 37 35 34 33 33 32 31 30 28 27 26 25 24 23 23 23 22 21 20 19 19 20 20 18 17 15 15 15 15 14 13 13 14 14 13 13 12
41 41 41 41 40 39 37 35 34 34 34 34 33 30 28 27 27 26 25 24 24 23 23 22 21 20 21 21 20 19 17 16 16 16 16 14 12 13 13 13 13 13
43 42 42 42 41 39 37 35 35 36 36 36 35 33 31 30 29 28 27 27 26 25 24 24 23 21 21 22 21 20 20 19 17 16 18 16 13 13 13 12 14 14
42 42 42 41 40 39 37 36 37 37 37 38 37 36 34 32 31 30 29 29 28 27 26 25 25 24 23 23 23 23 22 21 19 17 19 19 17 15 14 13 14 15
40 41 41 40 38 38 37 38 37 36 37 38 38 37 36 34 33 32 31 30 29 29 27 27 26 26 25 25 25 25 25 23 21 19 20 21 19 18 17 16 16 16
40 40 40 40 38 37 37 38 37 37 36 36 36 37 36 35 34 33 32 31 31 30 29 28 27 27 26 26 27 27 27 26 24 22 22 22 22 21 20 19 19 18
40 39 39 39 39 38 38 38 38 37 36 35 35 35 35 35 35 34 33 32 31 31 30 29 29 28 27 27 28 29 29 29 27 26 25 25 25 25 24 22 21 21
39 38 38 38 38 38 39 39 38 37 37 36 35 34 33 34 34 33 33 32 32 32 31 31 30 30 29 29 29 30 30 31 30 29 28 28 28 28 27 26 24 24
38 38 37 37 38 38 39 39 38 37 36 36 36 35 34 33 33 33 32 32 33 33 32 32 31 31 30 30 30 31 31 31 31 30 30 30 29 29 28 27 26 26
38 38 38 38 38 38 38 38 37 36 36 35 36 35 35 34 33 33 33 33 33 33 33 32 32 32 32 31 31 31 31 31 31 30 30 30 29 29 28 27 26 27
39 39 39 38 39 38 38 37 37 37 36 36 35 35 35 34 34 33 33 34 34 34 34 34 33 32 32 32 32 31 32 32 31 31 30 30 30 30 29 28 28 27
39 39 39 39 38 38 37 37 36 36 36 36 35 34 34 34 34 34 33 33 34 34 35 34 34 33 32 32 32 32 32 32 32 31 31 30 30 30 30 30 29 29
38 38 38 37 37 37 37 37 36 36 36 36 35 35 35 34 34 33 33 33 33 34 34 34 34 34 34 33 33 33 32 33 33 32 32 31 31 31 31 31 31 31
37 37 36 36 36 36 36 36 36 36 35 35 35 35 35 34 33 33 33 32 32 33 33 33 34 34 35 35 34 34 34 33 33 33 32 32 32 31 32 32 32 32
36 36 36 36 36 36 36 36 36 36 36 35 35 35 35 34 33 32 33 32 32 32 32 33 33 35 36 36 36 36 35 34 33 33 32 32 32 32 32 33 33 33
36 36 36 36 36 36 36 36 36 35 36 35 35 35 35 34 34 33 33 33 32 32 32 33 34 35 36 36 37 37 36 35 34 33 32 32 32 32 33 33 33 33
36 35 35 36 36 37 36 36 36 36 36 36 36 35 35 34 35 35 34 33 33 32 33 33 34 36 37 37 37 38 37 36 35 34 33 33 33 33 33 33 33 33
35 35 36 36 36 36 36 36 36 36 36 36 36 35 35 35 35 35 35 34 34 34 34 34 35 37 37 38 38 39 38 37 37 36 35 34 34 33 33 33 34 34
35 35 35 36 36 36 36 36 36 36 36 36 35 35 35 35 35 35 35 35 35 34 34 34 36 37 38 38 39 39 39 38 37 36 35 35 35 35 34 35 35 35
32 35 35 35 35 36 36 35 35 36 36 36 35 34 34 34 34 34 35 35 35 35 34 35 37 38 38 39 40 40 39 38 38 37 36 35 35 35 36 36 36 35
27 31 34 35 35 35 35 36 36 36 36 36 35 34 34 34 34 34 34 35 35 35 36 36 38 39 39 39 40 39 39 38 38 37 37 37 37 37 37 37 37 37
25 28 31 33 35 35 36 36 36 36 37 37 36 36 35 35 35 35 35 35 36 36 37 38 39 40 40 40 40 39 39 39 38 38 37 37 38 38 38 37 38 38
25 28 31 33 35 36 36 36 37 37 37 37 37 36 36 35 35 34 34 35 35 37 38 39 40 40 40 40 41 40 39 39 39 37 36 37 38 38 37 37 37 38
23 29 35 36 36 37 37 36 37 36 36 36 35 35 35 34 34 34 34 35 35 36 37 39 40 40 40 40 41 41 40 40 39 37 37 37 37 37 36 36 36 37
Wind_Direction
212 214 216 218 219 220 220 218 219 220 221 222 224 225 226 226 225 222 220 220 221 224 227 229 230 227 226 229 235 244 253 251 243 239 238 239 242 243 242 243 245 250
212 214 217 218 219 221 223 222 223 224 225 227 228 230 232 232 231 228 226 224 224 227 230 233 236 233 230 231 235 245 253 247 239 238 239 241 244 245 244 242 242 249
212 214 216 218 219 220 223 225 227 228 229 231 232 234 236 237 235 232 230 228 227 230 232 235 239 238 235 233 235 244 249 243 240 238 238 242 245 246 247 244 242 246
212 214 216 217 219 220 222 225 228 229 230 231 232 234 236 237 236 234 232 231 231 233 234 235 238 240 237 234 236 243 245 244 245 241 237 240 243 244 247 246 243 244
212 214 216 218 219 220 222 224 227 229 230 230 231 232 234 236 236 234 232 232 231 234 236 236 238 239 237 235 237 243 245 245 245 240 235 237 240 242 245 246 245 244
213 214 216 218 219 220 221 223 226 228 229 230 230 231 233 235 236 235 233 232 232 233 235 236 238 238 236 235 237 243 246 245 244 239 235 236 239 243 245 246 247 249
213 214 216 217 219 220 221 222 224 226 228 229 229 230 232 234 235 235 234 233 233 233 234 236 238 239 238 236 237 242 245 244 243 240 237 237 239 243 245 246 248 251
213 214 216 217 219 220 222 223 224 225 227 228 229 230 232 233 234 235 234 234 233 234 235 236 237 239 239 237 237 240 242 243 242 241 240 239 240 242 245 247 249 251
213 215 216 217 218 220 223 225 226 226 227 227 229 231 232 233 235 235 234 234 234 235 235 236 236 238 239 239 238 238 240 243 244 244 243 242 242 244 246 247 248 250
213 214 215 217 218 220 223 225 226 227 228 228 230 231 233 234 235 236 236 236 235 235 235 236 237 237 238 240 240 241 241 244 245 247 247 247 247 248 249 249 249 250
213 214 214 216 218 221 223 225 226 226 227 229 231 233 234 236 237 237 237 237 236 236 236 237 238 239 239 239 241 242 243 245 247 249 249 250 250 250 250 250 250 251
212 213 214 216 218 220 223 225 226 226 226 227 230 232 234 236 238 238 237 237 237 238 238 239 240 240 240 241 241 242 243 245 247 250 252 252 252 251 250 250 251 252
212 214 215 216 218 220 222 224 225 226 227 227 228 230 232 234 235 237 238 238 238 239 239 241 241 241 241 242 242 241 241 243 245 248 252 254 254 253 252 252 253 253
213 214 215 217 218 220 221 223 225 226 227 227 228 228 230 232 233 235 237 238 239 240 241 241 242 242 242 242 242 241 240 241 243 246 249 252 255 255 254 253 254 255
214 215 216 217 218 219 220 222 224 226 227 227 228 228 229 231 232 234 236 237 238 239 240 240 240 241 242 242 241 240 239 240 241 243 246 249 253 255 255 255 255 257
214 215 216 217 217 219 220 221 222 224 226 227 228 229 230 231 232 233 234 235 236 237 238 238 238 239 241 242 242 241 240 239 239 241 243 246 249 252 255 256 257 258
213 214 215 216 217 218 219 221 222 222 224 226 227 229 230 231 231 232 233 234 235 236 236 236 236 238 240 241 242 241 240 239 238 240 241 243 246 248 252 256 258 259
213 214 214 215 216 218 219 220 221 222 222 223 225 227 229 230 231 231 232 233 234 234 235 235 236 238 239 240 241 241 240 238 238 239 241 242 244 246 249 253 256 259
212 213 214 215 216 217 218 220 220 220 221 222 223 225 226 228 230 231 232 232 232 232 234 235 237 239 240 240 241 241 240 238 237 237 239 242 244 245 248 251 253 256
212 213 213 215 216 217 218 218 218 220 221 222 223 223 224 226 227 229 231 231 231 232 233 235 237 239 240 240 241 241 241 239 237 236 238 241 244 246 248 250 251 253
212 212 213 215 215 216 217 217 218 219 220 221 222 222 223 224 226 228 229 230 231 231 232 234 237 239 240 240 241 241 241 239 237 235 236 238 242 245 247 250 252 252
218 213 212 215 215 215 216 216 217 219 220 221 221 222 223 224 225 226 228 229 230 230 231 233 236 239 240 240 241 241 240 238 237 235 235 236 240 243 246 249 251 252
230 222 215 214 215 215 215 216 217 218 219 219 219 220 221 222 223 225 227 228 228 229 229 232 235 237 238 240 241 241 238 236 235 234 234 236 239 242 244 247 249 250
230 234 225 217 215 216 216 217 217 217 218 219 218 218 219 220 222 224 225 227 227 228 229 231 234 237 237 239 240 240 237 236 234 233 233 235 239 241 243 244 247 249
219 231 232 224 219 219 219 218 218 218 218 218 218 219 220 220 220 221 223 225 227 229 230 231 233 236 237 238 239 239 237 235 233 231 232 234 238 240 242 243 245 247
218 223 229 227 223 222 222 220 219 218 218 217 218 219 220 220 220 220 222 224 226 228 230 230 232 234 235 237 238 238 237 234 230 228 231 234 236 238 240 242 243 246
Height
821 823 825 827 828 830 832 833 835 836 837 839 840 841 842 843 845 846 847 849 850 851 852 853 854 855 856 857 858 859 860 860 861 862 862 863 863 864 864 865 865 866
819 821 823 825 826 828 830 832 834 835 836 838 839 840 842 843 845 846 847 848 849 850 851 853 854 855 855 856 857 858 859 860 860 861 862 862 863 863 863 864 865 865
816 818 820 822 824 826 828 830 832 834 835 837 838 839 841 842 844 845 846 848 848 850 851 852 853 854 855 856 857 858 858 859 860 861 861 862 862 863 863 864 865 865
813 816 817 820 822 824 826 828 830 832 833 835 836 838 840 841 842 844 845 847 848 849 850 851 853 854 854 855 856 857 858 859 860 860 861 861 862 862 862 863 864 865
810 813 815 817 820 822 824 826 827 829 831 833 835 836 838 839 841 842 844 845 847 848 849 850 852 853 854 855 855 856 857 858 859 860 860 861 861 862 862 863 863 864
807 810 813 815 817 820 822 823 825 827 829 830 832 834 836 838 839 841 842 844 845 847 848 849 850 852 853 854 854 855 856 857 858 859 860 860 861 861 862 862 862 863
805 807 810 813 816 818 819 821 823 825 826 828 830 832 834 835 837 838 840 842 843 845 847 848 849 850 851 853 853 854 855 856 857 858 859 859 860 861 861 861 862 862
802 805 808 811 813 816 817 819 820 822 824 826 828 830 832 833 835 836 838 840 841 843 845 846 847 849 850 851 852 853 854 855 856 857 857 858 859 859 860 860 861 861
799 802 805 808 810 813 814 816 818 820 822 824 826 828 829 831 832 834 836 837 839 841 842 844 846 847 849 850 851 851 852 853 854 855 856 857 857 858 858 859 860 860
796 799 802 805 807 809 811 813 816 818 820 821 823 826 827 829 830 832 834 835 837 838 840 841 843 845 846 848 849 850 851 851 853 854 854 855 856 856 857 858 858 858
793 796 799 801 803 806 808 811 813 815 817 819 821 823 825 827 829 830 831 833 834 836 838 839 840 842 844 845 846 848 849 850 851 852 853 853 854 855 856 856 857 857
790 793 795 797 800 802 805 808 811 813 815 816 818 820 822 824 826 828 829 830 832 833 835 836 838 839 840 842 844 845 847 848 849 850 851 852 853 853 854 855 855 855
786 789 791 794 796 799 802 805 807 810 812 813 815 816 818 821 822 824 826 827 829 831 832 833 835 836 838 839 841 842 844 845 846 848 849 849 850 851 852 853 853 854
783 786 788 791 793 795 798 801 804 806 808 810 812 813 815 817 819 821 823 824 826 827 829 831 832 833 835 836 838 840 841 842 844 845 846 847 848 849 850 851 851 852
780 783 785 788 791 792 795 797 800 803 805 807 809 810 811 813 815 818 819 821 823 824 826 828 829 830 832 833 835 836 838 839 841 842 843 844 845 846 847 848 849 849
777 780 782 785 787 789 792 794 796 799 802 804 805 807 808 810 812 815 816 818 819 821 823 824 825 827 828 830 831 833 835 836 837 839 840 842 843 843 844 845 846 846
774 777 779 782 784 786 789 791 793 796 798 800 802 803 805 807 809 811 812 814 816 817 819 821 822 823 824 826 828 829 831 833 834 836 837 838 840 841 841 842 842 843
771 774 776 778 781 783 786 788 790 793 794 796 798 800 802 803 805 807 808 811 813 814 816 817 818 819 821 822 824 826 828 830 831 833 834 835 837 837 838 839 839 840
768 770 773 775 777 779 782 785 787 789 791 793 794 796 799 800 801 803 804 807 809 810 812 813 814 815 817 819 820 822 824 826 828 829 831 832 833 834 835 835 836 836
765 767 769 771 774 776 779 781 783 785 787 789 791 793 795 796 797 799 800 802 804 806 808 809 810 811 813 814 816 818 820 822 824 826 827 828 829 830 831 832 833 833
761 763 766 768 770 773 775 776 779 781 783 786 788 789 790 792 794 795 796 798 800 802 804 805 806 807 809 810 812 813 816 818 820 822 824 825 826 827 828 828 829 830
760 760 762 765 767 769 771 773 775 777 780 782 784 785 787 788 790 791 793 794 796 798 800 800 801 803 804 806 807 810 812 814 816 818 820 821 822 823 824 825 825 826
762 762 760 761 764 765 767 769 771 773 775 778 780 781 783 784 786 787 788 790 792 793 795 795 796 798 800 801 803 806 808 811 813 814 816 817 818 819 820 820 821 822
758 763 762 760 760 761 763 765 767 769 771 772 775 776 777 779 781 782 784 785 787 788 789 790 791 793 795 797 799 802 804 806 808 810 812 813 814 815 816 816 817 818
748 758 762 760 757 757 759 761 763 764 766 768 770 772 773 775 776 778 779 780 782 783 784 786 787 788 791 793 795 797 799 802 804 806 807 808 809 810 811 812 813 814
740 747 754 756 755 755 756 758 759 761 762 764 766 768 770 771 772 773 774 775 777 778 779 781 782 784 786 788 790 792 794 797 800 802 803 804 805 806 807 808 809 810